Location: Astronomy Club of Akron Observatory
(40.9700°N, 81.5606°W)
Time: 17:55:31
(UTC-05:00)

Cosmos 1441 Rocket - Visible Passes

Search period start: 26 February 2015 00:00
Search period end: 08 March 2015 00:00
Orbit: 506 x 551 km, 81.1° (Epoch: 25 February)

Date Brightness Start Highest point End Pass type
(mag) Time Alt. Az. Time Alt. Az. Time Alt. Az.
26 Feb 5.9 04:36:57 10° NNE 04:39:57 20° ENE 04:42:59 10° ESE visible
26 Feb 4.2 06:12:42 10° NNW 06:16:09 27° W 06:19:29 10° SSW visible
27 Feb 6.0 04:26:02 10° NNE 04:28:54 19° ENE 04:31:50 10° ESE visible
27 Feb 4.1 06:01:38 10° NNW 06:05:09 29° W 06:08:33 10° SSW visible
28 Feb 6.0 04:15:08 10° NNE 04:17:51 18° ENE 04:20:40 10° ESE visible
28 Feb 4.0 05:50:35 10° NNW 05:54:09 31° W 05:57:36 10° SSW visible
01 Mar 6.1 04:04:13 10° NNE 04:06:48 17° ENE 04:09:28 10° ESE visible
01 Mar 3.9 05:39:30 10° NNW 05:43:08 33° W 05:46:39 10° SSW visible
02 Mar6.503:59:15ESE03:59:15ESE03:53:09NNEvisible
02 Mar 5.2 05:34:51 15° SSW 05:34:51 15° SSW 05:35:41 10° SSW visible
04 Mar 6.8 19:01:42 10° W 19:02:46 11° WNW 19:03:35 10° NW visible
05 Mar 6.7 18:50:12 10° W 18:51:40 11° WNW 18:52:55 10° NW visible
